contact:dominique.lefevre@mio.osupytheas.fr, maurice.libes@osupytheas.fr, didier.mallarino@osupytheas.fr
Project:EMSO http://www.emso-fr.org/EMSO-France
Depth: 2436.0 m
Title:EMSO Ligure Ouest : Data MII capteur AQUADOPP
Date,Latitude,Longitude,X_East,Y_North,Z_Up,Amplitude_X,Amplitude_Y,Amplitude_Z,Batterie,SoundSpeed,Heading,Pitch,Roll,Pressure,TIS,Speed,Direction
, degrees North, degrees East, m.s-1, m.s-1,m.s-1, 1, 1, 1, Volt, m.s-1, degree, degree, degree, dbar, degree_C, m.s-1, degree
2023-09-28T00:04:03,42.805,6.029,0.033,-0.014,-0.027,103.0,104.0,102.0,13.4,1505.2,354.6,-0.8,1.8,2471.441,13.28,0.035,113.0
2023-09-28T00:07:03,42.805,6.029,0.031,0.004,0.005,104.0,103.0,102.0,13.4,1505.2,328.7,-0.8,1.8,2471.443,13.28,0.031,82.7
2023-09-28T00:10:03,42.805,6.029,0.023,-0.012,0.011,102.0,103.0,102.0,13.4,1505.2,346.2,-0.8,1.8,2471.42,13.29,0.025,117.6
2023-09-28T00:13:03,42.805,6.029,0.029,-0.015,-0.018,103.0,104.0,101.0,13.4,1505.2,355.7,-0.7,1.8,2471.467,13.29,0.032,117.4
2023-09-28T00:16:03,42.805,6.029,0.034,-0.033,-0.024,103.0,103.0,102.0,13.3,1505.2,343.4,-0.8,1.8,2471.41,13.29,0.047,134.1
2023-09-28T00:19:03,42.805,6.029,0.036,-0.027,-0.029,103.0,103.0,102.0,13.3,1505.2,334.8,-0.8,1.8,2471.404,13.29,0.045,126.9
2023-09-28T00:22:03,42.805,6.029,0.041,-0.028,-0.004,103.0,102.0,102.0,13.3,1505.2,338.0,-0.8,1.8,2471.405,13.29,0.049,124.3
2023-09-28T00:25:03,42.805,6.029,0.047,-0.017,-0.009,103.0,104.0,102.0,13.3,1505.2,336.4,-0.8,1.8,2471.392,13.29,0.049,109.9
2023-09-28T00:28:03,42.805,6.029,0.033,-0.043,-0.015,104.0,103.0,102.0,13.4,1505.2,353.3,-0.8,1.8,2471.394,13.29,0.054,142.5
2023-09-28T00:31:03,42.805,6.029,0.033,-0.018,-0.019,104.0,104.0,102.0,13.3,1505.2,356.1,-0.8,1.8,2471.382,13.29,0.037,118.6
2023-09-28T00:34:03,42.805,6.029,0.042,-0.036,-0.053,102.0,104.0,104.0,13.3,1505.2,346.8,-0.7,1.8,2471.401,13.29,0.055,130.6
2023-09-28T00:37:03,42.805,6.029,0.019,-0.026,-0.015,104.0,102.0,101.0,13.4,1505.2,353.0,-0.8,1.8,2471.367,13.29,0.032,143.8
2023-09-28T00:40:03,42.805,6.029,0.034,-0.028,-0.033,102.0,102.0,102.0,13.3,1505.2,344.6,-0.7,1.8,2471.386,13.29,0.044,129.5
2023-09-28T00:43:03,42.805,6.029,0.018,-0.023,-0.04,105.0,102.0,101.0,13.4,1505.2,349.0,-0.8,1.8,2471.399,13.29,0.029,142.0
2023-09-28T00:46:03,42.805,6.029,0.038,-0.025,-0.002,103.0,102.0,103.0,13.4,1505.2,334.8,-0.8,1.8,2471.425,13.29,0.045,123.3
2023-09-28T00:49:03,42.805,6.029,0.041,-0.043,-0.022,102.0,102.0,103.0,13.4,1505.2,349.1,-0.8,1.8,2471.426,13.29,0.059,136.4
2023-09-28T00:52:03,42.805,6.029,0.021,0.012,0.032,103.0,101.0,103.0,13.3,1505.2,339.8,-0.7,1.8,2471.357,13.29,0.024,60.3
2023-09-28T00:55:03,42.805,6.029,0.023,-0.034,-0.021,103.0,103.0,102.0,13.3,1505.2,347.2,-0.8,1.8,2471.381,13.29,0.041,145.9
2023-09-28T00:58:03,42.805,6.029,0.033,-0.032,-0.01,102.0,103.0,102.0,13.4,1505.2,355.2,-0.7,1.8,2471.389,13.29,0.045,134.1
2023-09-28T01:04:03,42.805,6.029,0.018,-0.01,0.006,103.0,103.0,103.0,13.4,1505.2,338.8,-0.8,1.8,2471.455,13.28,0.02,119.1
2023-09-28T01:07:03,42.805,6.029,0.039,-0.034,-0.033,103.0,103.0,101.0,13.3,1505.2,341.5,-0.8,1.8,2471.411,13.28,0.051,131.1
2023-09-28T01:10:03,42.805,6.029,0.031,-0.025,-0.031,103.0,103.0,102.0,13.3,1505.2,350.6,-0.8,1.8,2471.411,13.29,0.039,128.9
2023-09-28T01:13:03,42.805,6.029,0.031,-0.024,-0.011,103.0,104.0,102.0,13.3,1505.2,336.9,-0.8,1.8,2471.42,13.29,0.039,127.7
2023-09-28T01:16:03,42.805,6.029,0.028,-0.027,-0.023,104.0,102.0,101.0,13.4,1505.2,356.9,-0.7,1.8,2471.395,13.29,0.038,134.0
2023-09-28T01:19:03,42.805,6.029,0.025,-0.052,-0.026,103.0,103.0,102.0,13.4,1505.2,349.6,-0.8,1.8,2471.409,13.29,0.057,154.3
2023-09-28T01:22:03,42.805,6.029,0.034,-0.04,-0.026,102.0,102.0,102.0,13.4,1505.2,348.5,-0.8,1.8,2471.373,13.29,0.052,139.6
2023-09-28T01:25:03,42.805,6.029,0.024,-0.028,-0.057,104.0,103.0,101.0,13.4,1505.2,344.8,-0.8,1.8,2471.378,13.29,0.036,139.4
2023-09-28T01:28:03,42.805,6.029,0.026,-0.036,-0.051,102.0,103.0,102.0,13.3,1505.2,335.0,-0.8,1.8,2471.362,13.29,0.044,144.2
2023-09-28T01:31:03,42.805,6.029,0.02,-0.034,-0.001,103.0,103.0,101.0,13.3,1505.2,355.6,-0.8,1.8,2471.4,13.29,0.039,149.5
2023-09-28T01:34:03,42.805,6.029,0.026,-0.039,-0.048,102.0,104.0,102.0,13.4,1505.2,344.0,-0.8,1.8,2471.418,13.29,0.046,146.3
2023-09-28T01:37:03,42.805,6.029,0.038,-0.015,-0.016,103.0,103.0,101.0,13.3,1505.2,342.9,-0.8,1.8,2471.381,13.29,0.04,111.5
2023-09-28T01:40:03,42.805,6.029,0.032,-0.041,-0.013,103.0,103.0,102.0,13.3,1505.2,337.9,-0.8,1.8,2471.374,13.29,0.052,142.0
2023-09-28T01:43:03,42.805,6.029,0.039,-0.046,-0.026,103.0,104.0,101.0,13.4,1505.2,354.8,-0.8,1.8,2471.4,13.29,0.06,139.7
2023-09-28T01:46:03,42.805,6.029,0.051,-0.027,-0.006,104.0,101.0,103.0,13.3,1505.2,329.7,-0.8,1.8,2471.396,13.29,0.057,117.9
2023-09-28T01:49:03,42.805,6.029,0.023,-0.007,-0.02,103.0,103.0,103.0,13.4,1505.2,331.5,-0.7,1.8,2471.377,13.29,0.024,106.9
2023-09-28T01:52:03,42.805,6.029,0.036,-0.013,0.016,104.0,103.0,102.0,13.3,1505.2,341.5,-0.7,1.8,2471.393,13.29,0.038,109.9
2023-09-28T01:55:03,42.805,6.029,0.021,-0.001,-0.033,104.0,103.0,102.0,13.4,1505.2,333.8,-0.7,1.8,2471.41,13.29,0.021,92.7
2023-09-28T01:58:03,42.805,6.029,0.036,-0.044,-0.005,104.0,102.0,102.0,13.3,1505.2,353.8,-0.7,1.8,2471.378,13.29,0.056,140.7
2023-09-28T02:04:03,42.805,6.029,0.022,-0.018,-0.01,104.0,102.0,101.0,13.3,1505.2,339.1,-0.7,1.8,2471.43,13.28,0.028,129.3
2023-09-28T02:07:03,42.805,6.029,0.045,-0.037,-0.026,103.0,103.0,102.0,13.4,1505.2,341.5,-0.8,1.8,2471.433,13.28,0.058,129.4
2023-09-28T02:10:03,42.805,6.029,0.032,-0.041,-0.031,103.0,102.0,102.0,13.4,1505.2,357.0,-0.8,1.8,2471.431,13.29,0.052,142.0
2023-09-28T02:13:03,42.805,6.029,0.03,-0.015,-0.012,103.0,102.0,103.0,13.3,1505.2,341.2,-0.8,1.8,2471.443,13.29,0.033,116.6
2023-09-28T02:16:03,42.805,6.029,0.052,-0.038,-0.049,102.0,103.0,102.0,13.4,1505.2,338.9,-0.8,1.8,2471.435,13.29,0.064,126.2
2023-09-28T02:19:03,42.805,6.029,0.049,-0.037,-0.035,102.0,103.0,101.0,13.3,1505.2,335.9,-0.8,1.8,2471.437,13.29,0.061,127.1
2023-09-28T02:22:03,42.805,6.029,0.02,-0.026,-0.038,103.0,104.0,101.0,13.4,1505.2,340.3,-0.7,1.8,2471.408,13.29,0.032,142.4
2023-09-28T02:25:03,42.805,6.029,0.017,-0.015,0.008,103.0,103.0,102.0,13.4,1505.2,354.9,-0.7,1.8,2471.403,13.29,0.022,131.4
2023-09-28T02:28:03,42.805,6.029,0.041,-0.021,-0.027,104.0,103.0,102.0,13.3,1505.2,329.8,-0.8,1.8,2471.407,13.29,0.046,117.1
2023-09-28T02:31:03,42.805,6.029,0.038,-0.048,-0.019,103.0,102.0,102.0,13.3,1505.2,344.5,-0.8,1.9,2471.439,13.29,0.061,141.6
2023-09-28T02:34:03,42.805,6.029,0.028,-0.032,0.001,103.0,104.0,101.0,13.4,1505.2,335.9,-0.8,1.8,2471.442,13.29,0.042,138.8
2023-09-28T02:37:03,42.805,6.029,0.045,-0.025,-0.04,103.0,103.0,103.0,13.4,1505.2,337.7,-0.7,1.8,2471.415,13.29,0.051,119.1
2023-09-28T02:40:03,42.805,6.029,0.054,-0.008,-0.034,105.0,103.0,101.0,13.3,1505.2,336.6,-0.7,1.8,2471.384,13.29,0.054,98.4
2023-09-28T02:43:03,42.805,6.029,0.026,-0.017,-0.039,104.0,102.0,102.0,13.3,1505.2,335.0,-0.8,1.8,2471.397,13.29,0.031,123.2
2023-09-28T02:46:03,42.805,6.029,0.03,-0.049,-0.023,103.0,102.0,102.0,13.4,1505.2,340.3,-0.8,1.8,2471.405,13.29,0.057,148.5
2023-09-28T02:49:03,42.805,6.029,0.0,-0.06,-0.039,103.0,102.0,102.0,13.3,1505.2,350.1,-0.8,1.8,2471.421,13.29,0.06,180.0
2023-09-28T02:52:03,42.805,6.029,0.034,-0.041,-0.029,103.0,103.0,102.0,13.4,1505.2,327.8,-0.8,1.8,2471.417,13.29,0.053,140.3
2023-09-28T02:55:03,42.805,6.029,0.037,-0.043,-0.044,104.0,103.0,102.0,13.3,1505.2,349.5,-0.8,1.8,2471.448,13.29,0.056,139.3
2023-09-28T02:58:03,42.805,6.029,0.031,-0.037,-0.03,104.0,102.0,101.0,13.4,1505.2,341.8,-0.8,1.8,2471.428,13.29,0.048,140.0
2023-09-28T03:04:03,42.805,6.029,0.039,-0.044,-0.06,102.0,104.0,101.0,13.4,1505.2,329.0,-0.7,1.8,2471.503,13.28,0.058,138.4
2023-09-28T03:07:03,42.805,6.029,0.018,-0.041,-0.049,103.0,103.0,102.0,13.3,1505.2,334.8,-0.8,1.8,2471.493,13.28,0.044,156.3
2023-09-28T03:10:03,42.805,6.029,0.039,-0.038,-0.026,103.0,102.0,103.0,13.4,1505.2,348.3,-0.7,1.8,2471.483,13.28,0.054,134.3
2023-09-28T03:13:03,42.805,6.029,0.021,-0.051,-0.056,102.0,102.0,102.0,13.3,1505.2,342.4,-0.8,1.8,2471.464,13.29,0.055,157.6
2023-09-28T03:16:03,42.805,6.029,0.023,-0.039,-0.038,103.0,103.0,102.0,13.3,1505.2,344.6,-0.8,1.8,2471.498,13.29,0.045,149.5
2023-09-28T03:19:03,42.805,6.029,0.026,-0.067,-0.018,103.0,103.0,102.0,13.3,1505.2,355.6,-0.8,1.8,2471.428,13.29,0.071,158.8
2023-09-28T03:22:03,42.805,6.029,0.029,-0.026,-0.008,103.0,103.0,102.0,13.3,1505.2,347.7,-0.8,1.8,2471.467,13.29,0.038,131.9
2023-09-28T03:25:03,42.805,6.029,0.029,-0.052,-0.022,103.0,104.0,102.0,13.4,1505.2,349.2,-0.8,1.8,2471.485,13.29,0.059,150.9
2023-09-28T03:28:03,42.805,6.029,0.037,-0.036,-0.031,102.0,103.0,102.0,13.4,1505.2,349.8,-0.8,1.8,2471.467,13.29,0.051,134.2
2023-09-28T03:31:03,42.805,6.029,0.024,-0.03,-0.056,104.0,103.0,102.0,13.4,1505.2,334.6,-0.8,1.8,2471.469,13.29,0.038,141.3
2023-09-28T03:34:03,42.805,6.029,0.037,-0.038,-0.016,103.0,103.0,102.0,13.4,1505.2,339.5,-0.8,1.8,2471.471,13.29,0.053,135.8
2023-09-28T03:37:03,42.805,6.029,0.021,-0.034,-0.016,103.0,104.0,102.0,13.4,1505.2,347.0,-0.7,1.8,2471.477,13.29,0.039,148.3
2023-09-28T03:40:03,42.805,6.029,0.042,-0.033,-0.028,104.0,102.0,102.0,13.4,1505.2,343.0,-0.8,1.8,2471.43,13.29,0.053,128.2
2023-09-28T03:43:03,42.805,6.029,0.027,-0.047,-0.039,103.0,103.0,102.0,13.4,1505.2,339.9,-0.8,1.8,2471.426,13.29,0.054,150.1
2023-09-28T03:46:03,42.805,6.029,0.052,-0.038,-0.028,105.0,103.0,101.0,13.4,1505.2,342.1,-0.8,1.8,2471.517,13.29,0.064,126.2
2023-09-28T03:49:03,42.805,6.029,0.024,-0.025,-0.032,103.0,104.0,102.0,13.3,1505.2,339.8,-0.8,1.8,2471.447,13.29,0.034,136.2
2023-09-28T03:52:03,42.805,6.029,0.027,-0.051,-0.043,104.0,103.0,102.0,13.4,1505.2,339.1,-0.7,1.8,2471.463,13.29,0.057,152.1
2023-09-28T03:55:03,42.805,6.029,0.028,-0.048,-0.046,103.0,104.0,102.0,13.4,1505.2,352.0,-0.7,1.8,2471.498,13.29,0.055,149.7
2023-09-28T03:58:03,42.805,6.029,0.033,-0.036,-0.023,103.0,103.0,102.0,13.4,1505.2,345.9,-0.8,1.8,2471.489,13.29,0.048,137.5
2023-09-28T04:04:03,42.805,6.029,0.009,-0.039,-0.028,103.0,102.0,101.0,13.4,1505.2,354.8,-0.8,1.8,2471.549,13.28,0.04,167.0
2023-09-28T04:07:03,42.805,6.029,0.017,-0.04,-0.024,103.0,103.0,102.0,13.4,1505.2,356.0,-0.8,1.8,2471.545,13.28,0.043,157.0
2023-09-28T04:10:03,42.805,6.029,0.034,-0.054,-0.022,104.0,103.0,102.0,13.4,1505.2,349.6,-0.8,1.8,2471.541,13.28,0.063,147.8
2023-09-28T04:13:03,42.805,6.029,0.011,-0.045,-0.03,104.0,103.0,103.0,13.3,1505.2,344.8,-0.8,1.8,2471.523,13.29,0.046,166.3
2023-09-28T04:16:03,42.805,6.029,0.016,-0.018,-0.011,104.0,102.0,102.0,13.4,1505.2,341.9,-0.8,1.8,2471.527,13.29,0.024,138.4
2023-09-28T04:19:03,42.805,6.029,0.017,-0.07,-0.051,103.0,103.0,103.0,13.3,1505.2,342.8,-0.8,1.8,2471.53,13.29,0.072,166.3
2023-09-28T04:22:03,42.805,6.029,0.017,-0.042,-0.039,103.0,104.0,102.0,13.4,1505.2,336.4,-0.8,1.8,2471.509,13.29,0.045,158.0
2023-09-28T04:25:03,42.805,6.029,0.022,-0.033,-0.005,104.0,103.0,102.0,13.3,1505.2,346.7,-0.8,1.8,2471.542,13.29,0.039,146.3
2023-09-28T04:28:03,42.805,6.029,0.014,-0.033,-0.027,103.0,103.0,102.0,13.4,1505.2,339.9,-0.8,1.8,2471.519,13.29,0.035,157.0
2023-09-28T04:31:03,42.805,6.029,0.051,-0.045,-0.005,103.0,103.0,102.0,13.4,1505.2,332.9,-0.8,1.8,2471.576,13.29,0.068,131.4
2023-09-28T04:34:03,42.805,6.029,0.012,-0.032,-0.044,104.0,104.0,102.0,13.3,1505.2,353.3,-0.8,1.8,2471.55,13.29,0.034,159.4
2023-09-28T04:37:03,42.805,6.029,0.021,-0.039,-0.027,103.0,104.0,102.0,13.4,1505.2,346.4,-0.8,1.8,2471.525,13.29,0.044,151.7
2023-09-28T04:40:03,42.805,6.029,0.038,-0.019,-0.023,104.0,103.0,102.0,13.4,1505.2,331.5,-0.7,1.8,2471.508,13.29,0.042,116.6
2023-09-28T04:43:03,42.805,6.029,0.019,-0.036,-0.006,104.0,103.0,102.0,13.3,1505.2,348.0,-0.8,1.8,2471.488,13.29,0.04,152.2
2023-09-28T04:46:03,42.805,6.029,0.008,-0.039,-0.042,104.0,103.0,102.0,13.4,1505.2,333.8,-0.8,1.8,2471.513,13.29,0.039,168.4
2023-09-28T04:49:03,42.805,6.029,0.007,-0.036,-0.035,104.0,104.0,102.0,13.3,1505.2,334.8,-0.8,1.8,2471.517,13.29,0.036,169.0
2023-09-28T04:52:03,42.805,6.029,0.03,-0.028,-0.03,104.0,104.0,103.0,13.3,1505.2,331.5,-0.8,1.8,2471.547,13.29,0.041,133.0
2023-09-28T04:55:03,42.805,6.029,0.027,-0.034,-0.047,104.0,103.0,102.0,13.3,1505.2,340.5,-0.8,1.8,2471.508,13.29,0.043,141.5
2023-09-28T04:58:03,42.805,6.029,0.021,-0.028,-0.001,103.0,103.0,101.0,13.4,1505.2,331.8,-0.8,1.8,2471.547,13.29,0.035,143.1
2023-09-28T05:04:03,42.805,6.029,-0.003,-0.051,-0.057,105.0,103.0,103.0,13.4,1505.2,349.6,-0.8,1.8,2471.539,13.28,0.051,183.4
2023-09-28T05:07:03,42.805,6.029,0.01,-0.016,-0.039,103.0,103.0,101.0,13.3,1505.2,335.2,-0.8,1.8,2471.564,13.28,0.018,148.0
2023-09-28T05:10:03,42.805,6.029,0.031,-0.046,-0.04,103.0,103.0,102.0,13.3,1505.2,345.7,-0.8,1.8,2471.596,13.28,0.055,146.0
2023-09-28T05:13:03,42.805,6.029,0.021,-0.029,-0.035,104.0,103.0,102.0,13.3,1505.2,346.5,-0.8,1.8,2471.549,13.29,0.035,144.1
2023-09-28T05:16:03,42.805,6.029,0.018,-0.071,-0.068,103.0,104.0,102.0,13.3,1505.2,339.5,-0.8,1.8,2471.529,13.29,0.073,165.8
2023-09-28T05:19:03,42.805,6.029,0.016,-0.028,-0.038,104.0,102.0,101.0,13.3,1505.2,330.2,-0.8,1.9,2471.564,13.29,0.032,150.3
2023-09-28T05:22:03,42.805,6.029,0.036,-0.02,-0.039,105.0,102.0,104.0,13.3,1505.2,341.2,-0.7,1.8,2471.578,13.29,0.041,119.1
2023-09-28T05:25:03,42.805,6.029,0.051,-0.045,-0.006,104.0,103.0,101.0,13.4,1505.2,348.2,-0.8,1.8,2471.566,13.29,0.068,131.4
2023-09-28T05:28:03,42.805,6.029,0.009,-0.045,-0.059,105.0,102.0,103.0,13.4,1505.2,348.2,-0.8,1.8,2471.543,13.29,0.045,168.7
2023-09-28T05:31:03,42.805,6.029,0.032,-0.049,-0.05,103.0,102.0,102.0,13.3,1505.2,348.1,-0.8,1.8,2471.552,13.29,0.058,146.8
2023-09-28T05:34:03,42.805,6.029,0.031,-0.023,-0.019,102.0,103.0,102.0,13.3,1505.2,329.4,-0.8,1.8,2471.58,13.29,0.038,126.6
2023-09-28T05:37:03,42.805,6.029,0.0,-0.052,-0.036,104.0,101.0,102.0,13.4,1505.2,354.0,-0.8,1.8,2471.559,13.29,0.052,180.0
2023-09-28T05:40:03,42.805,6.029,0.024,-0.029,-0.036,102.0,103.0,102.0,13.4,1505.2,329.8,-0.8,1.8,2471.58,13.29,0.037,140.4
2023-09-28T05:43:03,42.805,6.029,0.022,-0.029,-0.018,104.0,102.0,101.0,13.3,1505.2,333.9,-0.8,1.8,2471.527,13.29,0.036,142.8
2023-09-28T05:46:03,42.805,6.029,0.009,-0.038,0.011,103.0,104.0,100.0,13.4,1505.2,349.5,-0.8,1.8,2471.554,13.29,0.039,166.7
2023-09-28T05:49:03,42.805,6.029,0.022,-0.032,-0.019,103.0,104.0,101.0,13.4,1505.2,330.0,-0.7,1.8,2471.566,13.29,0.038,145.5
2023-09-28T05:52:03,42.805,6.029,0.0,-0.013,-0.019,103.0,102.0,102.0,13.4,1505.2,339.8,-0.8,1.8,2471.551,13.29,0.013,180.0
2023-09-28T05:55:03,42.805,6.029,0.025,-0.019,-0.035,104.0,103.0,102.0,13.4,1505.2,327.2,-0.8,1.8,2471.534,13.29,0.031,127.2
2023-09-28T05:58:03,42.805,6.029,0.015,-0.035,-0.028,102.0,103.0,102.0,13.4,1505.2,342.7,-0.7,1.8,2471.557,13.29,0.038,156.8
2023-09-28T06:04:03,42.805,6.029,0.039,-0.046,-0.065,104.0,103.0,102.0,13.3,1505.2,339.8,-0.8,1.8,2471.583,13.28,0.06,139.7
2023-09-28T06:07:03,42.805,6.029,0.003,-0.028,-0.056,104.0,103.0,102.0,13.4,1505.2,356.9,-0.7,1.8,2471.603,13.28,0.028,173.9
2023-09-28T06:10:03,42.805,6.029,0.012,-0.023,-0.023,103.0,103.0,103.0,13.4,1505.2,342.9,-0.7,1.8,2471.611,13.28,0.025,152.4
2023-09-28T06:13:03,42.805,6.029,0.009,-0.025,-0.064,104.0,103.0,102.0,13.4,1505.2,349.5,-0.7,1.8,2471.592,13.29,0.026,160.2
2023-09-28T06:16:03,42.805,6.029,0.029,-0.056,-0.043,104.0,102.0,103.0,13.3,1505.2,342.9,-0.7,1.8,2471.596,13.29,0.063,152.6
2023-09-28T06:19:03,42.805,6.029,0.035,-0.029,0.012,104.0,103.0,103.0,13.4,1505.2,337.2,-0.8,1.8,2471.554,13.29,0.045,129.6
2023-09-28T06:22:03,42.805,6.029,0.01,-0.036,-0.047,104.0,103.0,102.0,13.4,1505.2,349.1,-0.8,1.8,2471.569,13.29,0.037,164.5
2023-09-28T06:25:03,42.805,6.029,0.01,-0.035,-0.034,103.0,103.0,102.0,13.3,1505.2,348.8,-0.8,1.8,2471.592,13.29,0.036,164.1
2023-09-28T06:28:03,42.805,6.029,0.027,-0.023,-0.02,103.0,103.0,102.0,13.4,1505.2,329.9,-0.8,1.8,2471.537,13.29,0.035,130.4
2023-09-28T06:31:03,42.805,6.029,0.027,-0.036,-0.051,104.0,103.0,101.0,13.4,1505.2,346.2,-0.8,1.8,2471.576,13.29,0.045,143.1
2023-09-28T06:34:03,42.805,6.029,0.023,-0.029,-0.015,103.0,103.0,102.0,13.4,1505.2,347.6,-0.8,1.8,2471.578,13.29,0.037,141.6
2023-09-28T06:37:03,42.805,6.029,0.002,-0.01,-0.02,103.0,103.0,102.0,13.4,1505.2,333.8,-0.8,1.8,2471.561,13.29,0.01,168.7
2023-09-28T06:40:03,42.805,6.029,0.017,-0.012,-0.02,103.0,103.0,101.0,13.4,1505.2,338.2,-0.8,1.8,2471.553,13.29,0.02,125.2
2023-09-28T06:43:03,42.805,6.029,0.028,-0.038,-0.016,105.0,103.0,102.0,13.3,1505.2,331.6,-0.8,1.8,2471.576,13.29,0.047,143.6
2023-09-28T06:46:03,42.805,6.029,0.02,-0.002,-0.009,104.0,102.0,102.0,13.3,1505.2,347.2,-0.8,1.8,2471.566,13.29,0.02,95.7
2023-09-28T06:49:03,42.805,6.029,0.004,-0.007,-0.03,103.0,101.0,102.0,13.3,1505.2,334.6,-0.8,1.8,2471.553,13.29,0.008,150.3
2023-09-28T06:52:03,42.805,6.029,-0.001,-0.037,-0.034,103.0,103.0,102.0,13.4,1505.2,354.9,-0.8,1.8,2471.527,13.29,0.037,181.5
2023-09-28T06:55:03,42.805,6.029,-0.004,-0.043,-0.05,103.0,103.0,101.0,13.4,1505.2,349.0,-0.8,1.8,2471.535,13.29,0.043,185.3
2023-09-28T06:58:03,42.805,6.029,0.021,-0.006,-0.015,103.0,103.0,102.0,13.4,1505.2,337.6,-0.7,1.8,2471.563,13.29,0.021,105.9
2023-09-28T07:04:03,42.805,6.029,0.022,-0.025,-0.034,104.0,103.0,101.0,13.4,1505.2,334.6,-0.8,1.8,2471.581,13.28,0.033,138.7
2023-09-28T07:07:03,42.805,6.029,0.024,-0.037,-0.033,104.0,103.0,102.0,13.4,1505.2,338.5,-0.8,1.8,2471.577,13.28,0.044,147.0
2023-09-28T07:10:03,42.805,6.029,0.0,-0.019,-0.038,103.0,103.0,102.0,13.3,1505.2,351.0,-0.8,1.9,2471.559,13.29,0.019,180.0
2023-09-28T07:13:03,42.805,6.029,0.011,-0.025,-0.024,103.0,103.0,102.0,13.4,1505.2,343.3,-0.7,1.8,2471.543,13.29,0.027,156.3
2023-09-28T07:16:03,42.805,6.029,0.001,-0.03,-0.033,103.0,103.0,102.0,13.4,1505.2,349.0,-0.7,1.8,2471.587,13.29,0.03,178.1
2023-09-28T07:19:03,42.805,6.029,0.014,-0.016,-0.008,104.0,104.0,102.0,13.3,1505.2,327.5,-0.8,1.8,2471.569,13.29,0.021,138.8
2023-09-28T07:22:03,42.805,6.029,0.027,-0.033,-0.026,105.0,104.0,102.0,13.4,1505.2,336.2,-0.8,1.8,2471.553,13.29,0.042,140.7
2023-09-28T07:25:03,42.805,6.029,0.0,-0.026,-0.047,104.0,103.0,102.0,13.4,1505.2,349.6,-0.8,1.8,2471.545,13.29,0.026,180.0
2023-09-28T07:28:03,42.805,6.029,0.0,-0.029,-0.037,105.0,103.0,102.0,13.3,1505.2,337.1,-0.8,1.8,2471.545,13.29,0.028,180.0
2023-09-28T07:31:03,42.805,6.029,0.017,-0.022,-0.022,103.0,103.0,102.0,13.4,1505.2,347.2,-0.8,1.8,2471.551,13.29,0.027,142.3
2023-09-28T07:34:03,42.805,6.029,0.018,-0.028,-0.049,103.0,103.0,102.0,13.4,1505.2,332.6,-0.8,1.8,2471.564,13.29,0.033,147.3
2023-09-28T07:37:03,42.805,6.029,0.008,-0.025,-0.024,103.0,103.0,103.0,13.3,1505.2,330.2,-0.8,1.8,2471.54,13.29,0.026,162.3
2023-09-28T07:40:03,42.805,6.029,0.016,-0.025,-0.029,104.0,103.0,102.0,13.4,1505.2,339.3,-0.8,1.8,2471.559,13.29,0.029,147.4
2023-09-28T07:43:03,42.805,6.029,0.018,-0.032,-0.012,104.0,103.0,102.0,13.3,1505.2,345.9,-0.7,1.8,2471.539,13.29,0.036,150.6
2023-09-28T07:46:03,42.805,6.029,0.007,-0.017,-0.05,102.0,103.0,102.0,13.3,1505.2,355.9,-0.8,1.8,2471.543,13.29,0.018,157.6
2023-09-28T07:49:03,42.805,6.029,0.04,-0.033,-0.022,103.0,102.0,101.0,13.4,1505.2,346.4,-0.8,1.8,2471.501,13.29,0.051,129.5
2023-09-28T07:52:03,42.805,6.029,0.034,-0.041,-0.055,103.0,103.0,102.0,13.4,1505.2,340.3,-0.8,1.8,2471.516,13.29,0.053,140.3
2023-09-28T07:55:03,42.805,6.029,0.008,-0.048,-0.063,104.0,102.0,102.0,13.4,1505.2,355.9,-0.8,1.8,2471.518,13.29,0.048,170.5
2023-09-28T07:58:03,42.805,6.029,0.043,-0.036,-0.023,102.0,103.0,102.0,13.4,1505.2,336.2,-0.8,1.8,2471.52,13.29,0.056,129.9
2023-09-28T08:04:03,42.805,6.029,0.006,-0.033,-0.023,104.0,103.0,102.0,13.4,1505.2,329.0,-0.8,1.8,2471.6,13.28,0.033,169.7
2023-09-28T08:07:03,42.805,6.029,0.02,-0.032,-0.035,105.0,103.0,102.0,13.4,1505.2,332.5,-0.7,1.8,2471.569,13.28,0.037,148.0
2023-09-28T08:10:03,42.805,6.029,0.02,-0.032,-0.043,104.0,103.0,102.0,13.3,1505.2,337.6,-0.7,1.8,2471.556,13.28,0.037,148.0
2023-09-28T08:13:03,42.805,6.029,0.019,-0.038,-0.015,102.0,102.0,102.0,13.4,1505.2,339.2,-0.8,1.8,2471.538,13.29,0.042,153.4
2023-09-28T08:16:03,42.805,6.029,0.005,-0.021,-0.018,104.0,102.0,102.0,13.3,1505.2,355.0,-0.7,1.8,2471.551,13.29,0.021,166.6
2023-09-28T08:19:03,42.805,6.029,0.0,-0.004,-0.031,102.0,102.0,101.0,13.4,1505.2,346.4,-0.8,1.8,2471.558,13.29,0.004,180.0
2023-09-28T08:22:03,42.805,6.029,0.013,-0.023,-0.019,103.0,103.0,101.0,13.4,1505.2,345.9,-0.8,1.8,2471.553,13.29,0.026,150.5
2023-09-28T08:25:03,42.805,6.029,0.022,-0.014,-0.029,104.0,103.0,101.0,13.4,1505.2,338.9,-0.8,1.8,2471.48,13.29,0.026,122.5
2023-09-28T08:28:03,42.805,6.029,-0.004,-0.025,-0.041,103.0,103.0,102.0,13.3,1505.2,346.4,-0.8,1.8,2471.528,13.29,0.025,189.1
2023-09-28T08:31:03,42.805,6.029,0.003,-0.003,-0.039,104.0,103.0,102.0,13.4,1505.2,344.6,-0.8,1.8,2471.525,13.29,0.004,135.0
2023-09-28T08:34:03,42.805,6.029,0.0,-0.004,-0.037,103.0,103.0,102.0,13.4,1505.2,346.7,-0.8,1.8,2471.514,13.29,0.004,180.0
2023-09-28T08:37:03,42.805,6.029,0.0,-0.015,-0.01,102.0,103.0,102.0,13.4,1505.2,356.8,-0.8,1.8,2471.545,13.29,0.015,180.0
2023-09-28T08:40:03,42.805,6.029,-0.001,-0.04,-0.035,103.0,103.0,101.0,13.3,1505.2,357.0,-0.8,1.8,2471.517,13.29,0.04,181.4
2023-09-28T08:43:03,42.805,6.029,0.02,-0.027,-0.014,103.0,102.0,102.0,13.4,1505.2,338.3,-0.8,1.8,2471.52,13.29,0.033,143.5
2023-09-28T08:46:03,42.805,6.029,0.0,-0.027,-0.015,103.0,102.0,102.0,13.4,1505.2,334.9,-0.7,1.8,2471.479,13.29,0.026,180.0
2023-09-28T08:49:03,42.805,6.029,0.037,-0.038,-0.046,104.0,103.0,101.0,13.3,1505.2,339.7,-0.8,1.8,2471.487,13.29,0.053,135.8
2023-09-28T08:52:03,42.805,6.029,0.016,-0.021,0.0,103.0,103.0,102.0,13.4,1505.2,337.1,-0.7,1.8,2471.506,13.29,0.026,142.7
2023-09-28T08:55:03,42.805,6.029,0.013,-0.015,0.003,104.0,103.0,102.0,13.4,1505.2,356.8,-0.8,1.8,2471.469,13.29,0.019,139.1
2023-09-28T08:58:03,42.805,6.029,0.004,-0.027,-0.04,105.0,102.0,102.0,13.3,1505.2,348.6,-0.7,1.8,2471.451,13.29,0.027,171.6
2023-09-28T09:04:03,42.805,6.029,0.019,-0.032,-0.016,103.0,103.0,102.0,13.3,1505.2,354.5,-0.8,1.8,2471.503,13.28,0.037,149.3
2023-09-28T09:07:03,42.805,6.029,0.0,-0.022,-0.035,104.0,103.0,102.0,13.4,1505.2,341.0,-0.8,1.8,2471.551,13.28,0.022,180.0
2023-09-28T09:10:03,42.805,6.029,0.003,-0.019,-0.028,105.0,103.0,101.0,13.3,1505.2,343.5,-0.8,1.8,2471.532,13.29,0.019,171.0
2023-09-28T09:13:03,42.805,6.029,0.002,0.004,-0.002,102.0,103.0,102.0,13.4,1505.2,331.8,-0.8,1.8,2471.502,13.29,0.004,26.6
2023-09-28T09:16:03,42.805,6.029,0.013,-0.069,-0.03,104.0,103.0,102.0,13.3,1505.2,347.6,-0.8,1.8,2471.488,13.29,0.07,169.3
2023-09-28T09:19:03,42.805,6.029,0.014,-0.039,-0.044,103.0,104.0,101.0,13.4,1505.2,346.1,-0.7,1.8,2471.523,13.29,0.041,160.3
2023-09-28T09:22:03,42.805,6.029,0.021,-0.009,-0.018,106.0,104.0,101.0,13.4,1505.2,329.7,-0.7,1.9,2471.476,13.29,0.022,113.2
2023-09-28T09:25:03,42.805,6.029,0.009,-0.008,-0.04,103.0,103.0,102.0,13.4,1505.2,345.4,-0.7,1.8,2471.463,13.29,0.012,131.6
2023-09-28T09:28:03,42.805,6.029,0.016,-0.03,-0.052,103.0,103.0,102.0,13.4,1505.2,348.2,-0.7,1.8,2471.492,13.29,0.034,151.9
2023-09-28T09:31:03,42.805,6.029,0.002,-0.017,-0.034,103.0,104.0,102.0,13.3,1505.2,354.0,-0.7,1.8,2471.455,13.29,0.017,173.3
2023-09-28T09:34:03,42.805,6.029,0.018,-0.017,-0.013,104.0,102.0,102.0,13.3,1505.2,339.1,-0.7,1.8,2471.505,13.29,0.024,133.4
2023-09-28T09:37:03,42.805,6.029,0.0,-0.012,-0.034,103.0,103.0,102.0,13.4,1505.2,350.5,-0.8,1.8,2471.503,13.29,0.012,180.0
2023-09-28T09:40:03,42.805,6.029,0.005,-0.012,-0.038,103.0,103.0,101.0,13.4,1505.2,348.0,-0.7,1.8,2471.468,13.29,0.013,157.4
2023-09-28T09:43:03,42.805,6.029,0.033,-0.024,-0.014,102.0,104.0,101.0,13.4,1505.2,344.3,-0.8,1.8,2471.455,13.29,0.04,126.0
2023-09-28T09:46:03,42.805,6.029,0.036,-0.019,-0.03,103.0,102.0,103.0,13.4,1505.2,333.4,-0.8,1.9,2471.467,13.29,0.04,117.8
2023-09-28T09:49:03,42.805,6.029,0.022,-0.036,-0.044,104.0,103.0,102.0,13.4,1505.2,344.8,-0.8,1.8,2471.435,13.29,0.042,148.6
2023-09-28T09:52:03,42.805,6.029,0.014,-0.035,-0.01,105.0,102.0,102.0,13.4,1505.2,347.9,-0.8,1.8,2471.457,13.29,0.037,158.2
2023-09-28T09:55:03,42.805,6.029,0.021,-0.028,-0.022,104.0,103.0,102.0,13.3,1505.2,332.1,-0.8,1.8,2471.425,13.29,0.035,143.1